Weather in Ergach

Russia / Perm Krai     57°29′08″N   56°42′50″E
temp.,
°C
wind,
m/s
gust,
m/s
humid.,
%
clouds,
%
prec.,
mm/h
press.,
hPa
HPBL,
m
3 march, wed
wed323:00−8ssw61391100 0.3 997400
02:00−8ssw61291100 0.0 996338
05:00−7sw359599 0.3 996120
08:00−7wsw359599 0.1 99599
11:00−3wsw479199 0.1 996361
14:00−1wsw578746 0.0 997657
17:00−2wsw478768 0.0 997629
20:00−6wsw349098 0.0 99759
4 march, thu
thu423:00−7w239599 0.0 99831
02:00−7wnw3496100 0.3 997109
05:00−9w3694100 0.4 997139
08:00−13wsw349488 0.0 99777
11:00−9sw489078 0.0 997433
14:00−6ssw6991100 0.1 996668
17:00−6ssw6989100 0.3 995641
20:00−7ssw41094100 0.1 994356
5 march, fri
fri523:00−6s51195100 0.3 992428
02:00−5ssw4895100 0.2 991245
05:00−7sw489397 0.3 994176
08:00−10wsw479449 0.0 996112
11:00−7wsw479155 0.0 998417
14:00−5wsw468694 0.0 999714
17:00−5wsw358395 0.1 1000637
20:00−11wnw349182 0.0 100138
6 march, sat
sat623:00−14wnw349552 0.0 100365
02:00−14wnw489532 0.0 1005158
05:00−17wnw479541 0.0 1008125
08:00−20w359732 0.0 101086
11:00−15wsw469156 0.1 1011325
14:00−11w468693 0.0 1011639
17:00−10wsw358597 0.1 1010639
20:00−15sw339362 0.0 101021
7 march, sun
sun723:00−17ssw339757 0.0 101028
02:00−18ssw339772 0.0 100840
05:00−17s339779 0.2 100873
08:00−16ssw3496100 0.3 100789
11:00−13ssw3593100 0.4 1007307
14:00−9ssw5788100 0.1 1008724
17:00−9sw5787100 0.3 1007820
20:00−14ssw5109393 0.1 1008211